EXS68L LPPR-EGNX

Flight info

Callsign EXS68L
Flight time N/A
Altitude 37000
Route TURON P600 ASDEB DCT KORUL DCT EBOMO DCT RUSIB DCT NOZHU/N0451F370 DCT GIBSO L620 MID UM185 OCK Q3 HEMEL
Aircraft A21N/M-SDE2E3FGHIRWXY/LB1

Departure

Time 2026-05-07 20:16
Airport Francisco de Sá Carneiro Airport (LPPR)

Arrival

Time N/A
Airport East Midlands Airport (EGNX)
Time Latitude Longitude Altitude Speed Heading
2026-05-07 19:49 41.23790 -8.67371 233 ft 0 kts 49°
2026-05-07 20:03 41.23789 -8.67372 233 ft 0 kts 49°
2026-05-07 20:03 41.23781 -8.67385 232 ft 2 kts 49°
2026-05-07 20:04 41.23771 -8.67400 231 ft 2 kts 50°
2026-05-07 20:04 41.23765 -8.67418 230 ft 2 kts 84°
2026-05-07 20:04 41.23766 -8.67438 229 ft 2 kts 108°
2026-05-07 20:04 41.23773 -8.67455 228 ft 2 kts 133°
2026-05-07 20:05 41.23785 -8.67466 227 ft 2 kts 159°
2026-05-07 20:05 41.23800 -8.67471 227 ft 2 kts 173°
2026-05-07 20:05 41.23814 -8.67474 227 ft 2 kts 167°
2026-05-07 20:05 41.23822 -8.67477 227 ft 0 kts 168°
2026-05-07 20:08 41.23821 -8.67477 226 ft 0 kts 168°
2026-05-07 20:08 41.23816 -8.67475 226 ft 1 kts 168°
2026-05-07 20:08 41.23799 -8.67470 227 ft 3 kts 168°
2026-05-07 20:08 41.23775 -8.67464 228 ft 3 kts 167°
2026-05-07 20:09 41.23746 -8.67456 228 ft 4 kts 168°
2026-05-07 20:09 41.23711 -8.67447 229 ft 5 kts 169°
2026-05-07 20:09 41.23673 -8.67437 231 ft 6 kts 168°
2026-05-07 20:10 41.23555 -8.67406 234 ft 10 kts 169°
2026-05-07 20:10 41.23473 -8.67385 236 ft 13 kts 168°
2026-05-07 20:10 41.23373 -8.67370 237 ft 15 kts 197°
2026-05-07 20:10 41.23324 -8.67489 232 ft 9 kts 258°
2026-05-07 20:11 41.23323 -8.67499 231 ft 0 kts 258°
2026-05-07 20:14 41.23322 -8.67508 231 ft 3 kts 258°
2026-05-07 20:14 41.23313 -8.67558 229 ft 8 kts 257°
2026-05-07 20:14 41.23301 -8.67653 226 ft 12 kts 266°
2026-05-07 20:14 41.23356 -8.67745 222 ft 13 kts 347°
2026-05-07 20:15 41.23368 -8.67749 222 ft 0 kts 349°
2026-05-07 20:15 41.23426 -8.67763 221 ft 35 kts 348°
2026-05-07 20:15 41.23933 -8.67897 211 ft 110 kts 348°
2026-05-07 20:16 41.24907 -8.68153 190 ft 170 kts 349°
2026-05-07 20:16 41.26105 -8.68450 708 ft 179 kts 348°
2026-05-07 20:16 41.27329 -8.68774 1442 ft 182 kts 348°
2026-05-07 20:16 41.28553 -8.69098 2181 ft 185 kts 348°
2026-05-07 20:17 41.29870 -8.69442 2670 ft 199 kts 348°
2026-05-07 20:17 41.31276 -8.69811 3112 ft 216 kts 348°
2026-05-07 20:17 41.32816 -8.70216 3472 ft 239 kts 348°
2026-05-07 20:17 41.34522 -8.70668 3964 ft 257 kts 348°
2026-05-07 20:18 41.36328 -8.71147 4587 ft 270 kts 348°
2026-05-07 20:18 41.38172 -8.71636 5357 ft 277 kts 348°
2026-05-07 20:18 41.40085 -8.72143 6126 ft 283 kts 348°
2026-05-07 20:18 41.42042 -8.72529 6863 ft 290 kts 357°
2026-05-07 20:19 41.44049 -8.72388 7625 ft 295 kts
2026-05-07 20:19 41.46064 -8.71909 8417 ft 298 kts 12°
2026-05-07 20:19 41.48112 -8.71353 9185 ft 302 kts 13°
2026-05-07 20:19 41.50177 -8.70794 9943 ft 306 kts 13°
2026-05-07 20:20 41.52299 -8.70234 10565 ft 315 kts 12°
2026-05-07 20:20 41.54501 -8.69664 10941 ft 333 kts 12°
2026-05-07 20:20 41.56814 -8.69074 11281 ft 350 kts 12°
2026-05-07 20:20 41.59282 -8.68448 11606 ft 368 kts 12°